Location: Squamish
(49.7000°N, 123.1500°W)
Time: 22:29:31
(UTC-07:00)

Daily predictions for brighter satellites

Satellite Brightness Start Highest point End
(mag) Time Altitude Azimuth Time Altitude Azimuth Time Altitude Azimuth
ERS-1 Rocket 3.6 20:30:18 10° SE 20:34:56 38° ENE 20:39:34 10° N
NOSS 2-1 (D) 3.9 20:31:11 10° SW 20:35:10 72° NW 20:40:00 10° NE
Helios 1B rocket 3.0 20:31:38 10° N 20:35:45 65° WNW 20:39:49 10° SSW
NOSS 2-1 (C) 3.9 20:32:12 10° SW 20:36:11 73° NW 20:41:02 10° NE
EO 1 Delta rocket 4.1 20:32:12 10° NNE 20:36:48 56° E 20:41:58 10° S
Okean 2 4.5 20:33:39 10° NNW 20:37:43 50° W 20:41:44 10° S
CZ-2D R/B 3.4 20:37:20 10° SSE 20:41:13 84° WSW 20:45:09 10° NNW
Cosmos 1544 Rocket 4.1 20:38:20 10° SSW 20:42:43 67° WNW 20:47:10 10° N
FENGYUN 3A 3.8 20:37:29 10° SSE 20:42:50 82° WSW 20:48:14 10° NNW
CZ-4 DEB 3.5 20:40:59 10° SE 20:43:53 35° ENE 20:46:48 10° N
Cosmos 1656 4.0 20:39:37 10° S 20:44:53 43° ESE 20:50:07 10° NE
Cosmos 2263 Rocket 3.9 20:42:00 10° N 20:45:56 19° NE 20:49:51 10° E
Cosmos 1898 Rocket 3.5 20:40:41 10° NNW 20:46:02 78° ENE 20:51:18 10° SSE
Meteor 1-29 4.1 20:42:50 10° N 20:46:12 50° WNW 20:49:34 10° SSW
Resurs 01 Rocket 3.5 20:43:16 10° SSW 20:47:18 33° W 20:51:22 10° NNW
Cosmos 1500 3.8 20:44:16 10° SSE 20:47:40 33° E 20:51:07 10° NNE
Cosmos 2227 Rocket 3.3 20:45:03 10° NW 20:50:24 44° WSW 20:55:44 10° S
Cosmos 1340 3.7 20:48:45 10° N 20:52:06 29° ENE 20:55:15 11° SE
NOSS 2-1 (E) 4.3 20:48:17 10° WSW 20:52:20 60° NW 20:57:19 10° NE
YAOGAN 6 4.5 20:50:43 10° ESE 20:53:04 17° ENE 20:55:31 10° NNE
Cosmos 1934 Rocket 4.3 20:47:14 10° SSW 20:53:23 73° WNW 20:59:41 10° N
Cosmos 2322 Rocket 3.9 20:58:38 11° ESE 20:59:22 11° E 21:00:45 10° E
Cosmos 1153 Rocket 4.5 20:54:15 10° S 21:00:21 67° E 21:06:27 10° NNE
USA 186 2.3 20:58:24 10° S 21:01:20 51° W 21:04:04 10° NNW
Cosmos 468 Rocket 4.2 20:58:51 10° S 21:03:43 46° ESE 21:08:38 10° NNE
Meteor 1-12 Rocket 4.3 20:58:24 10° S 21:04:10 83° E 21:10:06 10° NNE
Cosmos 1939 Rocket 3.2 21:01:12 10° SSE 21:05:14 52° ENE 21:09:19 10° N
Cosmos 2297 Rocket 3.2 21:00:06 10° NW 21:05:29 46° WSW 21:10:52 10° S
Cosmos 1515 3.8 21:03:16 10° NNW 21:07:08 78° W 21:10:58 10° S
ALOS 3.4 21:03:07 10° S 21:07:37 45° W 21:12:07 10° NNW
USA 215 3.8 21:06:24 10° E 21:12:45 55° NNE 21:19:05 10° WNW
Cosmos 972 Rocket 4.5 21:08:12 10° NNW 21:14:05 89° ENE 21:20:40 10° SSE
Cosmos 2227 4.3 21:08:51 10° NNW 21:14:37 66° ENE 21:19:24 15° SE
Cosmos 1814 Rocket 4.2 21:10:20 10° S 21:15:28 50° ESE 21:20:35 10° NNE
Cosmos 1802 Rocket 4.3 21:10:41 10° SSE 21:16:46 48° E 21:22:55 10° NNE
Cosmos 1825 Rocket 3.6 21:15:39 10° N 21:20:05 65° ENE 21:23:59 13° SSE
Tiangong 1 3.0 21:19:30 10° WSW 21:21:39 17° SSW 21:22:45 15° SSE
ASTEX 1 4.1 21:17:20 10° NNE 21:21:53 33° E 21:25:07 17° SE
Cosmos 2016 Rocket 4.2 21:20:51 10° SSE 21:26:40 47° E 21:32:36 10° NNE
Cosmos 1743 2.8 21:23:51 10° S 21:27:40 54° E 21:31:31 10° NNE
RESURS DK-1 3.0 21:23:50 10° NW 21:27:53 53° WSW 21:31:31 12° S
SL-24 R/B - RUBIN 2 4.4 21:22:34 10° SW 21:28:38 83° SE 21:35:17 10° NE
ATLAS CENTAUR R/B 4.4 21:26:30 10° WNW 21:30:03 19° NNW 21:33:32 10° NNE
Cosmos 1953 Rocket 3.6 21:26:40 10° N 21:31:06 63° ENE 21:34:19 18° SSE
H-2A R/B 1.9 21:35:03 20° SSE 21:37:52 75° ENE 21:42:03 10° NNW
Cosmos 2173 Rocket 4.0 21:32:28 10° S 21:38:49 76° E 21:45:09 10° NNE
Iridium 4 Rocket 4.4 21:36:03 10° NNW 21:40:58 46° W 21:45:25 10° SSW
BREEZE-M DEB (TANK) 4.1 21:40:24 10° W 21:43:58 61° SSW 21:50:26 21° SE
Cosmos 2228 3.9 21:44:12 27° ESE 21:44:58 29° E 21:48:41 10° NNE
Cosmos 1697 Rocket 2.7 21:39:32 10° SSW 21:45:12 89° ESE 21:50:53 10° NNE
Cosmos 1937 Rocket 4.4 21:42:22 10° NNW 21:47:25 48° WSW 21:52:28 10° S
Envisat 3.2 21:43:51 11° S 21:48:39 69° WSW 21:53:45 10° NNW
Cosmos 1758 Rocket 3.4 21:45:19 10° N 21:49:43 82° E 21:52:16 24° SSE
Nimbus 7 Rocket 4.5 21:45:17 10° NNE 21:51:18 61° ESE 21:57:17 10° S
Cosmos 2100 Rocket 4.1 21:48:05 10° SSW 21:54:22 80° W 22:00:36 10° N
Cosmos 1842 3.1 21:51:17 10° N 21:55:13 77° ENE 21:56:49 34° SSE
PSLV R/B 3.1 21:54:54 54° ESE 21:55:19 61° ENE 21:58:21 10° N
deb Chang Zheng 4 3.6 21:51:23 10° NNE 21:55:51 67° ESE 21:59:15 17° S
SL-16 R/B 3.0 21:54:57 28° ESE 21:55:53 29° ESE 22:00:41 10° NE
NOAA 11 4.3 21:55:11 28° SE 21:58:02 58° ENE 22:03:24 10° N
CZ-4B R/B 4.1 21:55:25 10° NE 21:59:37 30° E 21:59:59 30° ESE
Tsikada Rocket 4.0 21:53:42 10° N 22:00:09 71° ENE 22:04:10 24° SSE
Lacrosse 5 3.5 21:56:06 10° WNW 22:00:15 26° SW 22:03:18 15° S
ARGOS 3.3 21:57:54 29° SE 22:00:35 60° ENE 22:05:55 10° N
SL-19 R/B 4.5 21:57:33 10° NNE 22:02:48 44° E 22:04:48 31° SSE
Cosmos 1707 4.3 22:00:37 10° NNE 22:03:39 21° ENE 22:03:39 21° ENE
Cosmos 2061 Rocket 4.2 21:58:42 10° SSW 22:05:00 74° W 22:11:16 10° N
Cosmos 1980 Rocket 2.1 22:03:05 10° SSW 22:08:46 85° ESE 22:14:31 10° NNE
H-2A R/B 2.6 22:08:08 31° ESE 22:09:33 38° ENE 22:14:06 10° N
Cosmos 2360 Rocket 4.1 22:11:52 13° ENE 22:11:52 13° ENE 22:13:13 10° ENE
SPOT 5 3.1 22:07:53 22° S 22:11:03 67° WSW 22:15:45 10° NNW
CZ-4 SHROUD 3.0 22:11:39 82° SSE 22:11:46 89° SE 22:14:52 10° NNW
Cosmos 1666 2.5 22:10:53 43° S 22:12:02 80° E 22:15:52 10° NNE
MetOp-B 4.2 22:09:34 24° S 22:12:51 75° WSW 22:18:15 10° NNW
ERS-1 Rocket 4.5 22:09:14 10° SSW 22:13:46 33° W 22:18:19 10° NNW
Cosmos 332 Rocket 4.4 22:14:33 35° E 22:14:33 35° E 22:18:50 10° NE
Landsat 7 4.1 22:17:53 41° ESE 22:19:02 50° ENE 22:23:39 10° N
Cosmos 1816 Rocket 4.5 22:12:42 10° N 22:19:08 78° E 22:22:19 32° SSE
Cosmos 836 Rocket 4.4 22:17:08 22° S 22:20:31 66° ESE 22:25:48 10° NNE
Cosmos 2058 Rocket 3.0 22:18:15 28° S 22:20:37 89° W 22:25:10 10° N
Cosmos 1606 Rocket 4.3 22:20:41 11° SSW 22:24:53 54° WNW 22:29:17 10° N
YAOGAN 6 3.4 22:25:12 35° SSW 22:26:18 49° W 22:29:57 10° NNW
Cosmos 1725 Rocket 3.9 22:22:33 20° S 22:27:05 86° E 22:33:23 10° N
Cosmos 1763 Rocket 3.6 22:22:33 10° SSW 22:27:39 73° WNW 22:32:44 10° NNE
SPOT 1/Viking Rocket 3.6 22:26:34 36° S 22:28:47 79° WSW 22:34:02 10° NNW
Cosmos 2098 Rocket 3.9 22:22:30 12° S 22:28:50 83° W 22:34:15 10° N
Cosmos 2263 Rocket 2.1 22:25:16 10° NNW 22:30:52 74° ENE 22:32:32 46° SE
Cosmos 1125 Rocket 3.8 22:29:11 10° NNW 22:34:19 59° WSW 22:36:17 36° S
Terra 2.1 22:33:41 46° E 22:34:20 50° ENE 22:38:58 10° N
CARTOSAT-1 3.8 22:35:59 50° E 22:36:11 50° ENE 22:40:24 10° N
Meteor 2-5 Rocket 3.8 22:30:32 10° N 22:36:28 66° ENE 22:38:07 46° SE
CZ-4 R/B 3.9 22:33:15 10° NNE 22:37:55 53° E 22:38:00 53° ESE
Cosmos 1441 Rocket 4.4 22:36:03 10° N 22:39:05 32° NE 22:39:05 32° NE
Cosmos 2322 Rocket 2.1 22:40:22 41° S 22:42:17 66° ESE 22:47:53 10° NNE
Meteor 1-15 Rocket 4.3 22:38:38 22° SSW 22:42:32 81° WNW 22:48:26 10° N
BREEZE-M DEB (TANK) 3.2 22:34:20 10° WSW 22:43:13 50° S 22:43:19 50° SSE
DELTA 2 DEB (DPAF) 4.0 22:43:36 67° ESE 22:43:58 72° ENE 22:48:28 10° N
Genesis I 3.3 22:43:22 10° NW 22:47:08 69° NNE 22:47:08 69° NNE
Cosmos 405 Rocket 2.9 22:45:31 10° NNW 22:49:08 62° W 22:49:08 62° W
Cosmos 2233 Rocket 3.9 22:48:18 40° S 22:50:45 82° E 22:57:02 10° N
Meteor 1-24 Rocket 4.1 22:45:15 10° N 22:51:12 54° ENE 22:52:20 47° ESE
Cosmos 841 Rocket 4.1 22:46:11 10° SW 22:51:19 55° WNW 22:56:27 10° NNE
USA 215 3.2 22:53:25 46° SE 22:55:36 81° SW 23:02:12 10° WNW
Cosmos 1812 Rocket 3.7 22:58:22 64° NE 22:58:22 64° NE 23:02:13 10° NNE
Cosmos 540 Rocket 3.3 23:02:06 68° S 23:02:46 84° ESE 23:07:56 10° NNE
Spot 4 3.8 23:03:12 67° E 23:03:17 68° ENE 23:08:03 10° N
IGS 5A 3.6 23:05:04 71° N 23:05:04 71° N 23:08:49 10° NNW
CZ-4C R/B 3.7 23:09:13 68° W 23:09:13 68° W 23:13:35 10° NNW
COSMOS 2428 4.5 23:12:55 18° ENE 23:12:55 18° ENE 23:14:54 10° NE
Cosmos 2034 Rocket 4.3 23:14:56 47° E 23:15:00 47° E 23:20:54 10° NNE
Cosmos 2278 Rocket 3.5 23:15:53 10° NNW 23:20:47 29° NE 23:22:10 26° ENE
DMSP B5D2-2 3.9 23:21:31 10° NNE 23:26:51 85° ESE 23:26:53 85° ESE
BREEZE-M DEB (TANK) 4.3 23:22:10 10° WNW 23:36:09 42° SW 23:36:51 40° SW
Cosmos 1464 Rocket 3.9 23:36:22 70° S 23:37:10 86° E 23:43:34 10° N
GP-B 3.8 23:33:03 10° N 23:37:09 48° WNW 23:37:09 48° WNW
Cosmos 1513 Rocket 4.3 23:38:43 73° ESE 23:39:01 75° E 23:45:19 10° NNE
SL-16 R/B 2.8 23:36:43 27° WSW 23:39:41 55° NW 23:45:18 10° NNE
Cosmos 1707 4.3 23:36:08 10° NNW 23:38:54 33° WNW 23:38:54 33° WNW
Okean 3 Rocket 4.4 23:38:14 10° NNW 23:41:54 47° WNW 23:41:54 47° WNW
Cosmos 1844 Rocket 2.8 23:37:13 10° NNW 23:42:46 65° ENE 23:42:46 65° ENE
CZ-4B R/B 4.3 23:45:37 14° NNE 23:45:37 14° NNE 23:46:37 10° NNE
Meteor 1-22 Rocket 4.1 23:45:41 82° ENE 23:45:41 82° ENE 23:51:12 10° NNE
Cosmos 1844 4.0 23:41:09 10° NNW 23:46:47 56° NE 23:46:55 55° ENE
Nadezhda 4 Rocket 3.9 23:40:40 10° N 23:47:02 74° E 23:47:23 72° ESE
H-2A R/B 3.1 23:48:47 32° WSW 23:49:02 32° W 23:53:28 10° NNW
Cosmos 2360 Rocket 2.2 23:53:36 76° NE 23:53:36 76° NE 23:58:50 10° NNE
Cosmos 1980 Rocket 4.4 23:49:00 10° W 23:53:32 24° NW 23:58:05 10° NNE
